Year,Month,Day,Hour,Minute,Value (Times are PST for temperature in C)
2016,07,20,00,00,17.30
2016,07,20,00,01,17.30
2016,07,20,00,02,17.30
2016,07,20,00,03,17.30
2016,07,20,00,04,17.30
2016,07,20,00,05,17.30
2016,07,20,00,06,17.30
2016,07,20,00,07,17.30
2016,07,20,00,08,17.30
2016,07,20,00,09,17.20
2016,07,20,00,10,17.20
2016,07,20,00,11,17.20
2016,07,20,00,12,17.20
2016,07,20,00,13,17.20
2016,07,20,00,14,17.20
2016,07,20,00,15,17.20
2016,07,20,00,16,17.20
2016,07,20,00,17,17.20
2016,07,20,00,18,17.30
2016,07,20,00,19,17.30
2016,07,20,00,20,17.30
2016,07,20,00,21,17.30
2016,07,20,00,22,17.30
2016,07,20,00,23,17.30
2016,07,20,00,24,17.30
2016,07,20,00,25,17.30
2016,07,20,00,26,17.30
2016,07,20,00,27,17.30
2016,07,20,00,28,17.30
2016,07,20,00,29,17.30
2016,07,20,00,30,17.30
2016,07,20,00,31,17.30
2016,07,20,00,32,17.30
2016,07,20,00,33,17.30
2016,07,20,00,34,17.30
2016,07,20,00,35,17.30
2016,07,20,00,36,17.30
2016,07,20,00,37,17.30
2016,07,20,00,38,17.30
2016,07,20,00,39,17.30
2016,07,20,00,40,17.30
2016,07,20,00,41,17.30
2016,07,20,00,42,17.30
2016,07,20,00,43,17.30
2016,07,20,00,44,17.30
2016,07,20,00,45,17.30
2016,07,20,00,46,17.30
2016,07,20,00,47,17.30
2016,07,20,00,48,17.30
2016,07,20,00,49,17.30
2016,07,20,00,50,17.30
2016,07,20,00,51,17.30
2016,07,20,00,52,17.30
2016,07,20,00,53,17.30
2016,07,20,00,54,17.30
2016,07,20,00,55,17.30
2016,07,20,00,56,17.30
2016,07,20,00,57,17.30
2016,07,20,00,58,17.20
2016,07,20,00,59,17.20
2016,07,20,01,00,17.20
2016,07,20,01,01,17.20
2016,07,20,01,02,17.20
2016,07,20,01,03,17.20
2016,07,20,01,04,17.20
2016,07,20,01,05,17.20
2016,07,20,01,06,17.20
2016,07,20,01,07,17.20
2016,07,20,01,08,17.20
2016,07,20,01,09,17.20
2016,07,20,01,10,17.20
2016,07,20,01,11,17.20
2016,07,20,01,12,17.20
2016,07,20,01,13,17.20
2016,07,20,01,14,17.10
2016,07,20,01,15,17.10
2016,07,20,01,16,17.10
2016,07,20,01,17,17.10
2016,07,20,01,18,17.10
2016,07,20,01,19,17.10
2016,07,20,01,20,17.10
2016,07,20,01,21,17.10
2016,07,20,01,22,17.10
2016,07,20,01,23,17.10
2016,07,20,01,24,17.10
2016,07,20,01,25,17.10
2016,07,20,01,26,17.10
2016,07,20,01,27,17.10
2016,07,20,01,28,17.10
2016,07,20,01,29,17.10
2016,07,20,01,30,17.10
2016,07,20,01,31,17.10
2016,07,20,01,32,17.10
2016,07,20,01,33,17.10
2016,07,20,01,34,17.10
2016,07,20,01,35,17.00
2016,07,20,01,36,17.00
2016,07,20,01,37,17.00
2016,07,20,01,38,17.10
2016,07,20,01,39,17.10
2016,07,20,01,40,17.00
2016,07,20,01,41,17.10
2016,07,20,01,42,17.10
2016,07,20,01,43,17.00
2016,07,20,01,44,17.10
2016,07,20,01,45,17.00
2016,07,20,01,46,17.00
2016,07,20,01,47,16.90
2016,07,20,01,48,16.90
2016,07,20,01,49,16.90
2016,07,20,01,50,16.80
2016,07,20,01,51,16.80
2016,07,20,01,52,16.80
2016,07,20,01,53,16.80
2016,07,20,01,54,16.70
2016,07,20,01,55,16.70
2016,07,20,01,56,16.70
2016,07,20,01,57,16.70
2016,07,20,01,58,16.70
2016,07,20,01,59,16.60
2016,07,20,02,00,16.60
2016,07,20,02,01,16.60
2016,07,20,02,02,16.60
2016,07,20,02,03,16.60
2016,07,20,02,04,16.60
2016,07,20,02,05,16.60
2016,07,20,02,06,16.60
2016,07,20,02,07,16.60
2016,07,20,02,08,16.60
2016,07,20,02,09,16.60
2016,07,20,02,10,16.60
2016,07,20,02,11,16.60
2016,07,20,02,12,16.60
2016,07,20,02,13,16.60
2016,07,20,02,14,16.60
2016,07,20,02,15,16.50
2016,07,20,02,16,16.50
2016,07,20,02,17,16.50
2016,07,20,02,18,16.50
2016,07,20,02,19,16.50
2016,07,20,02,20,16.50
2016,07,20,02,21,16.50
2016,07,20,02,22,16.50
2016,07,20,02,23,16.50
2016,07,20,02,24,16.50
2016,07,20,02,25,16.50
2016,07,20,02,26,16.50
2016,07,20,02,27,16.50
2016,07,20,02,28,16.50
2016,07,20,02,29,16.50
2016,07,20,02,30,16.50
2016,07,20,02,31,16.50
2016,07,20,02,32,16.50
2016,07,20,02,33,16.60
2016,07,20,02,34,16.50
2016,07,20,02,35,16.50
2016,07,20,02,36,16.60
2016,07,20,02,37,16.60
2016,07,20,02,38,16.60
2016,07,20,02,39,16.60
2016,07,20,02,40,16.60
2016,07,20,02,41,16.60
2016,07,20,02,42,16.60
2016,07,20,02,43,16.60
2016,07,20,02,44,16.60
2016,07,20,02,45,16.60
2016,07,20,02,46,16.60
2016,07,20,02,47,16.60
2016,07,20,02,48,16.60
2016,07,20,02,49,16.60
2016,07,20,02,50,16.60
2016,07,20,02,51,16.60
2016,07,20,02,52,16.60
2016,07,20,02,53,16.60
2016,07,20,02,54,16.60
2016,07,20,02,55,16.60
2016,07,20,02,56,16.60
2016,07,20,02,57,16.60
2016,07,20,02,58,16.60
2016,07,20,02,59,16.60
2016,07,20,03,00,16.60
2016,07,20,03,01,16.60
2016,07,20,03,02,16.60
2016,07,20,03,03,16.60
2016,07,20,03,04,16.60
2016,07,20,03,05,16.60
2016,07,20,03,06,16.60
2016,07,20,03,07,16.60
2016,07,20,03,08,16.50
2016,07,20,03,09,16.50
2016,07,20,03,10,16.50
2016,07,20,03,11,16.50
2016,07,20,03,12,16.50
2016,07,20,03,13,16.50
2016,07,20,03,14,16.50
2016,07,20,03,15,16.50
2016,07,20,03,16,16.50
2016,07,20,03,17,16.50
2016,07,20,03,18,16.50
2016,07,20,03,19,16.50
2016,07,20,03,20,16.50
2016,07,20,03,21,16.40
2016,07,20,03,22,16.50
2016,07,20,03,23,16.40
2016,07,20,03,24,16.40
2016,07,20,03,25,16.50
2016,07,20,03,26,16.40
2016,07,20,03,27,16.40
2016,07,20,03,28,16.40
2016,07,20,03,29,16.40
2016,07,20,03,30,16.40
2016,07,20,03,31,16.40
2016,07,20,03,32,16.40
2016,07,20,03,33,16.40
2016,07,20,03,34,16.40
2016,07,20,03,35,16.40
2016,07,20,03,36,16.40
2016,07,20,03,37,16.40
2016,07,20,03,38,16.40
2016,07,20,03,39,16.40
2016,07,20,03,40,16.40
2016,07,20,03,41,16.40
2016,07,20,03,42,16.40
2016,07,20,03,43,16.40
2016,07,20,03,44,16.40
2016,07,20,03,45,16.40
2016,07,20,03,46,16.40
2016,07,20,03,47,16.40
2016,07,20,03,48,16.40
2016,07,20,03,49,16.40
2016,07,20,03,50,16.40
2016,07,20,03,51,16.40
2016,07,20,03,52,16.40
2016,07,20,03,53,16.40
2016,07,20,03,54,16.40
2016,07,20,03,55,16.40
2016,07,20,03,56,16.40
2016,07,20,03,57,16.40
2016,07,20,03,58,16.40
2016,07,20,03,59,16.40
2016,07,20,04,00,16.40
2016,07,20,04,01,16.40
2016,07,20,04,02,16.40
2016,07,20,04,03,16.40
2016,07,20,04,04,16.40
2016,07,20,04,05,16.40
2016,07,20,04,06,16.40
2016,07,20,04,07,16.40
2016,07,20,04,08,16.40
2016,07,20,04,09,16.40
2016,07,20,04,10,16.40
2016,07,20,04,11,16.40
2016,07,20,04,12,16.40
2016,07,20,04,13,16.40
2016,07,20,04,14,16.50
2016,07,20,04,15,16.50
2016,07,20,04,16,16.50
2016,07,20,04,17,16.50
2016,07,20,04,18,16.50
2016,07,20,04,19,16.50
2016,07,20,04,20,16.50
2016,07,20,04,21,16.50
2016,07,20,04,22,16.50
2016,07,20,04,23,16.50
2016,07,20,04,24,16.50
2016,07,20,04,25,16.50
2016,07,20,04,26,16.50
2016,07,20,04,27,16.50
2016,07,20,04,28,16.50
2016,07,20,04,29,16.50
2016,07,20,04,30,16.50
2016,07,20,04,31,16.50
2016,07,20,04,32,16.40
2016,07,20,04,33,16.40
2016,07,20,04,34,16.40
2016,07,20,04,35,16.40
2016,07,20,04,36,16.40
2016,07,20,04,37,16.40
2016,07,20,04,38,16.40
2016,07,20,04,39,16.40
2016,07,20,04,40,16.40
2016,07,20,04,41,16.40
2016,07,20,04,42,16.40
2016,07,20,04,43,16.40
2016,07,20,04,44,16.30
2016,07,20,04,45,16.30
2016,07,20,04,46,16.30
2016,07,20,04,47,16.30
2016,07,20,04,48,16.30
2016,07,20,04,49,16.30
2016,07,20,04,50,16.30
2016,07,20,04,51,16.30
2016,07,20,04,52,16.30
2016,07,20,04,53,16.30
2016,07,20,04,54,16.30
2016,07,20,04,55,16.30
2016,07,20,04,56,16.30
2016,07,20,04,57,16.30
2016,07,20,04,58,16.20
2016,07,20,04,59,16.20
2016,07,20,05,00,16.20
2016,07,20,05,01,16.20
2016,07,20,05,02,16.20
2016,07,20,05,03,16.20
2016,07,20,05,04,16.20
2016,07,20,05,05,16.20
2016,07,20,05,06,16.20
2016,07,20,05,07,16.20
2016,07,20,05,08,16.20
2016,07,20,05,09,16.20
2016,07,20,05,10,16.20
2016,07,20,05,11,16.10
2016,07,20,05,12,16.20
2016,07,20,05,13,16.10
2016,07,20,05,14,16.10
2016,07,20,05,15,16.10
2016,07,20,05,16,16.10
2016,07,20,05,17,16.10
2016,07,20,05,18,16.10
2016,07,20,05,19,16.10
2016,07,20,05,20,16.10
2016,07,20,05,21,16.10
2016,07,20,05,22,16.10
2016,07,20,05,23,16.00
2016,07,20,05,24,16.00
2016,07,20,05,25,16.00
2016,07,20,05,26,16.00
2016,07,20,05,27,16.00
2016,07,20,05,28,15.90
2016,07,20,05,29,15.90
2016,07,20,05,30,15.90
2016,07,20,05,31,15.90
2016,07,20,05,32,15.90
2016,07,20,05,33,15.90
2016,07,20,05,34,15.90
2016,07,20,05,35,15.90
2016,07,20,05,36,15.90
2016,07,20,05,37,15.80
2016,07,20,05,38,15.80
2016,07,20,05,39,15.80
2016,07,20,05,40,15.80
2016,07,20,05,41,15.80
2016,07,20,05,42,15.80
2016,07,20,05,43,15.80
2016,07,20,05,44,15.80
2016,07,20,05,45,15.80
2016,07,20,05,46,15.80
2016,07,20,05,47,15.80
2016,07,20,05,48,15.80
2016,07,20,05,49,15.80
2016,07,20,05,50,15.80
2016,07,20,05,51,15.80
2016,07,20,05,52,15.80
2016,07,20,05,53,15.80
2016,07,20,05,54,15.80
2016,07,20,05,55,15.80
2016,07,20,05,56,15.80
2016,07,20,05,57,15.80
2016,07,20,05,58,15.80
2016,07,20,05,59,15.80
2016,07,20,06,00,15.80
2016,07,20,06,01,15.80
2016,07,20,06,02,15.80
2016,07,20,06,03,15.80
2016,07,20,06,04,15.80
2016,07,20,06,05,15.80
2016,07,20,06,06,15.80
2016,07,20,06,07,15.80
2016,07,20,06,08,15.80
2016,07,20,06,09,15.80
2016,07,20,06,10,15.80
2016,07,20,06,11,15.80
2016,07,20,06,12,15.80
2016,07,20,06,13,15.80
2016,07,20,06,14,15.90
2016,07,20,06,15,15.90
2016,07,20,06,16,15.90
2016,07,20,06,17,15.90
2016,07,20,06,18,15.90
2016,07,20,06,19,15.90
2016,07,20,06,20,15.90
2016,07,20,06,21,15.90
2016,07,20,06,22,15.90
2016,07,20,06,23,15.90
2016,07,20,06,24,15.90
2016,07,20,06,25,15.90
2016,07,20,06,26,15.90
2016,07,20,06,27,15.90
2016,07,20,06,28,15.90
2016,07,20,06,29,15.90
2016,07,20,06,30,15.90
2016,07,20,06,31,15.90
2016,07,20,06,32,15.90
2016,07,20,06,33,15.90
2016,07,20,06,34,15.90
2016,07,20,06,35,15.90
2016,07,20,06,36,15.90
2016,07,20,06,37,15.90
2016,07,20,06,38,15.90
2016,07,20,06,39,15.90
2016,07,20,06,40,15.90
2016,07,20,06,41,15.90
2016,07,20,06,42,15.90
2016,07,20,06,43,15.90
2016,07,20,06,44,15.90
2016,07,20,06,45,15.90
2016,07,20,06,46,15.90
2016,07,20,06,47,15.90
2016,07,20,06,48,16.00
2016,07,20,06,49,16.00
2016,07,20,06,50,16.00
2016,07,20,06,51,16.00
2016,07,20,06,52,16.00
2016,07,20,06,53,16.00
2016,07,20,06,54,16.00
2016,07,20,06,55,16.00
2016,07,20,06,56,16.00
2016,07,20,06,57,16.00
2016,07,20,06,58,16.00
2016,07,20,06,59,16.00
2016,07,20,07,00,16.00
2016,07,20,07,01,16.10
2016,07,20,07,02,16.10
2016,07,20,07,03,16.10
2016,07,20,07,04,16.10
2016,07,20,07,05,16.10
2016,07,20,07,06,16.10
2016,07,20,07,07,16.10
2016,07,20,07,08,16.10
2016,07,20,07,09,16.10
2016,07,20,07,10,16.10
2016,07,20,07,11,16.10
2016,07,20,07,12,16.10
2016,07,20,07,13,16.10
2016,07,20,07,14,16.10
2016,07,20,07,15,16.10
2016,07,20,07,16,16.10
2016,07,20,07,17,16.20
2016,07,20,07,18,16.20
2016,07,20,07,19,16.20
2016,07,20,07,20,16.20
2016,07,20,07,21,16.20
2016,07,20,07,22,16.20
2016,07,20,07,23,16.20
2016,07,20,07,24,16.20
2016,07,20,07,25,16.20
2016,07,20,07,26,16.20
2016,07,20,07,27,16.20
2016,07,20,07,28,16.30
2016,07,20,07,29,16.30
2016,07,20,07,30,16.30
2016,07,20,07,31,16.30
2016,07,20,07,32,16.30
2016,07,20,07,33,16.30
2016,07,20,07,34,16.30
2016,07,20,07,35,16.30
2016,07,20,07,36,16.30
2016,07,20,07,37,16.30
2016,07,20,07,38,16.20
2016,07,20,07,39,16.20
2016,07,20,07,40,16.20
2016,07,20,07,41,16.20
2016,07,20,07,42,16.30
2016,07,20,07,43,16.30
2016,07,20,07,44,16.30
2016,07,20,07,45,16.30
2016,07,20,07,46,16.30
2016,07,20,07,47,16.30
2016,07,20,07,48,16.30
2016,07,20,07,49,16.30
2016,07,20,07,50,16.30
2016,07,20,07,51,16.30
2016,07,20,07,52,16.30
2016,07,20,07,53,16.30
2016,07,20,07,54,16.40
2016,07,20,07,55,16.40
2016,07,20,07,56,16.40
2016,07,20,07,57,16.40
2016,07,20,07,58,16.40
2016,07,20,07,59,16.40
2016,07,20,08,00,16.50
2016,07,20,08,01,16.50
2016,07,20,08,02,16.50
2016,07,20,08,03,16.50
2016,07,20,08,04,16.50
2016,07,20,08,05,16.50
2016,07,20,08,06,16.50
2016,07,20,08,07,16.50
2016,07,20,08,08,16.50
2016,07,20,08,09,16.50
2016,07,20,08,10,16.50
2016,07,20,08,11,16.50
2016,07,20,08,12,16.50
2016,07,20,08,13,16.50
2016,07,20,08,14,16.50
2016,07,20,08,15,16.50
2016,07,20,08,16,16.50
2016,07,20,08,17,16.50
2016,07,20,08,18,16.60
2016,07,20,08,19,16.50
2016,07,20,08,20,16.60
2016,07,20,08,21,16.60
2016,07,20,08,22,16.60
2016,07,20,08,23,16.60
2016,07,20,08,24,16.70
2016,07,20,08,25,16.70
2016,07,20,08,26,16.60
2016,07,20,08,27,16.60
2016,07,20,08,28,16.70
2016,07,20,08,29,16.70
2016,07,20,08,30,16.70
2016,07,20,08,31,16.70
2016,07,20,08,32,16.70
2016,07,20,08,33,16.70
2016,07,20,08,34,16.70
2016,07,20,08,35,16.70
2016,07,20,08,36,16.70
2016,07,20,08,37,16.80
2016,07,20,08,38,16.80
2016,07,20,08,39,16.80
2016,07,20,08,40,16.80
2016,07,20,08,41,16.80
2016,07,20,08,42,16.80
2016,07,20,08,43,16.80
2016,07,20,08,44,16.80
2016,07,20,08,45,16.80
2016,07,20,08,46,16.80
2016,07,20,08,47,16.80
2016,07,20,08,48,16.80
2016,07,20,08,49,16.70
2016,07,20,08,50,16.70
2016,07,20,08,51,16.70
2016,07,20,08,52,16.70
2016,07,20,08,53,16.70
2016,07,20,08,54,16.70
2016,07,20,08,55,16.70
2016,07,20,08,56,16.70
2016,07,20,08,57,16.70
2016,07,20,08,58,16.70
2016,07,20,08,59,16.70
2016,07,20,09,00,16.70
2016,07,20,09,01,16.70
2016,07,20,09,02,16.70
2016,07,20,09,03,16.70
2016,07,20,09,04,16.70
2016,07,20,09,05,16.70
2016,07,20,09,06,16.70
2016,07,20,09,07,16.70
2016,07,20,09,08,16.70
2016,07,20,09,09,16.70
2016,07,20,09,10,16.70
2016,07,20,09,11,16.70
2016,07,20,09,12,16.70
2016,07,20,09,13,16.70
2016,07,20,09,14,16.70
2016,07,20,09,15,16.70
2016,07,20,09,16,16.70
2016,07,20,09,17,16.70
2016,07,20,09,18,16.80
2016,07,20,09,19,16.80
2016,07,20,09,20,16.80
2016,07,20,09,21,16.80
2016,07,20,09,22,16.80
2016,07,20,09,23,16.80
2016,07,20,09,24,16.80
2016,07,20,09,25,16.80
2016,07,20,09,26,16.80
2016,07,20,09,27,16.80
2016,07,20,09,28,16.80
2016,07,20,09,29,16.80
2016,07,20,09,30,16.90
2016,07,20,09,31,16.90
2016,07,20,09,32,16.90
2016,07,20,09,33,16.90
2016,07,20,09,34,16.90
2016,07,20,09,35,16.90
2016,07,20,09,36,17.00
2016,07,20,09,37,17.00
2016,07,20,09,38,17.10
2016,07,20,09,39,17.10
2016,07,20,09,40,17.10
2016,07,20,09,41,17.10
2016,07,20,09,42,17.10
2016,07,20,09,43,17.20
2016,07,20,09,44,17.20
2016,07,20,09,45,17.20
2016,07,20,09,46,17.10
2016,07,20,09,47,17.10
2016,07,20,09,48,17.10
2016,07,20,09,49,17.10
2016,07,20,09,50,17.10
2016,07,20,09,51,17.10
2016,07,20,09,52,17.10
2016,07,20,09,53,17.00
2016,07,20,09,54,17.00
2016,07,20,09,55,17.00
2016,07,20,09,56,17.00
2016,07,20,09,57,16.90
2016,07,20,09,58,16.90
2016,07,20,09,59,16.90
2016,07,20,10,00,16.90
2016,07,20,10,01,16.90
2016,07,20,10,02,16.90
2016,07,20,10,03,16.90
2016,07,20,10,04,16.90
2016,07,20,10,05,16.90
2016,07,20,10,06,16.90
2016,07,20,10,07,16.90
2016,07,20,10,08,16.90
2016,07,20,10,09,16.90
2016,07,20,10,10,16.90
2016,07,20,10,11,16.80
2016,07,20,10,12,16.80
2016,07,20,10,13,16.80
2016,07,20,10,14,16.80
2016,07,20,10,15,16.80
2016,07,20,10,16,16.80
2016,07,20,10,17,16.90
2016,07,20,10,18,16.90
2016,07,20,10,19,16.90
2016,07,20,10,20,16.90
2016,07,20,10,21,17.00
2016,07,20,10,22,17.00
2016,07,20,10,23,17.00
2016,07,20,10,24,17.10
2016,07,20,10,25,17.10
2016,07,20,10,26,17.10
2016,07,20,10,27,17.10
2016,07,20,10,28,17.10
2016,07,20,10,29,17.20
2016,07,20,10,30,17.20
2016,07,20,10,31,17.20
2016,07,20,10,32,17.20
2016,07,20,10,33,17.20
2016,07,20,10,34,17.20
2016,07,20,10,35,17.30
2016,07,20,10,36,17.30
2016,07,20,10,37,17.30
2016,07,20,10,38,17.30
2016,07,20,10,39,17.40
2016,07,20,10,40,17.40
2016,07,20,10,41,17.40
2016,07,20,10,42,17.40
2016,07,20,10,43,17.40
2016,07,20,10,44,17.40
2016,07,20,10,45,17.50
2016,07,20,10,46,17.50
2016,07,20,10,47,17.60
2016,07,20,10,48,17.60
2016,07,20,10,49,17.60
2016,07,20,10,50,17.60
2016,07,20,10,51,17.60
2016,07,20,10,52,17.70
2016,07,20,10,53,17.70
2016,07,20,10,54,17.70
2016,07,20,10,55,17.70
2016,07,20,10,56,17.70
2016,07,20,10,57,17.70
2016,07,20,10,58,17.80
2016,07,20,10,59,17.80
2016,07,20,11,00,17.80
2016,07,20,11,01,17.80
2016,07,20,11,02,17.80
2016,07,20,11,03,17.80
2016,07,20,11,04,17.80
2016,07,20,11,05,17.80
2016,07,20,11,06,17.80
2016,07,20,11,07,17.80
2016,07,20,11,08,17.80
2016,07,20,11,09,17.80
2016,07,20,11,10,17.80
2016,07,20,11,11,17.80
2016,07,20,11,12,17.80
2016,07,20,11,13,17.80
2016,07,20,11,14,17.80
2016,07,20,11,15,17.80
2016,07,20,11,16,17.80
2016,07,20,11,17,17.90
2016,07,20,11,18,17.90
2016,07,20,11,19,17.90
2016,07,20,11,20,17.90
2016,07,20,11,21,17.90
2016,07,20,11,22,17.90
2016,07,20,11,23,18.00
2016,07,20,11,24,18.00
2016,07,20,11,25,18.10
2016,07,20,11,26,18.10
2016,07,20,11,27,18.10
2016,07,20,11,28,18.10
2016,07,20,11,29,18.10
2016,07,20,11,30,18.20
2016,07,20,11,31,18.20
2016,07,20,11,32,18.20
2016,07,20,11,33,18.20
2016,07,20,11,34,18.10
2016,07,20,11,35,18.10
2016,07,20,11,36,18.10
2016,07,20,11,37,18.10
2016,07,20,11,38,18.10
2016,07,20,11,39,18.20
2016,07,20,11,40,18.20
2016,07,20,11,41,18.30
2016,07,20,11,42,18.40
2016,07,20,11,43,18.40
2016,07,20,11,44,18.50
2016,07,20,11,45,18.60
2016,07,20,11,46,18.60
2016,07,20,11,47,18.60
2016,07,20,11,48,18.60
2016,07,20,11,49,18.60
2016,07,20,11,50,18.60
2016,07,20,11,51,18.60
2016,07,20,11,52,18.60
2016,07,20,11,53,18.60
2016,07,20,11,54,18.60
2016,07,20,11,55,18.60
2016,07,20,11,56,18.70
2016,07,20,11,57,18.70
2016,07,20,11,58,18.70
2016,07,20,11,59,18.80
2016,07,20,12,00,18.80
2016,07,20,12,01,18.80
2016,07,20,12,02,18.90
2016,07,20,12,03,18.90
2016,07,20,12,04,19.00
2016,07,20,12,05,19.00
2016,07,20,12,06,19.10
2016,07,20,12,07,19.20
2016,07,20,12,08,19.20
2016,07,20,12,09,19.30
2016,07,20,12,10,19.40
2016,07,20,12,11,19.40
2016,07,20,12,12,19.50
2016,07,20,12,13,19.50
2016,07,20,12,14,19.50
2016,07,20,12,15,19.50
2016,07,20,12,16,19.50
2016,07,20,12,17,19.60
2016,07,20,12,18,19.60
2016,07,20,12,19,19.60
2016,07,20,12,20,19.60
2016,07,20,12,21,19.60
2016,07,20,12,22,19.60
2016,07,20,12,23,19.60
2016,07,20,12,24,19.60
2016,07,20,12,25,19.70
2016,07,20,12,26,19.80
2016,07,20,12,27,19.80
2016,07,20,12,28,19.80
2016,07,20,12,29,19.70
2016,07,20,12,30,19.70
2016,07,20,12,31,19.60
2016,07,20,12,32,19.60
2016,07,20,12,33,19.60
2016,07,20,12,34,19.60
2016,07,20,12,35,19.60
2016,07,20,12,36,19.60
2016,07,20,12,37,19.60
2016,07,20,12,38,19.60
2016,07,20,12,39,19.60
2016,07,20,12,40,19.60
2016,07,20,12,41,19.70
2016,07,20,12,42,19.70
2016,07,20,12,43,19.70
2016,07,20,12,44,19.70
2016,07,20,12,45,19.70
2016,07,20,12,46,19.70
2016,07,20,12,47,19.70
2016,07,20,12,48,19.70
2016,07,20,12,49,19.60
2016,07,20,12,50,19.60
2016,07,20,12,51,19.60
2016,07,20,12,52,19.60
2016,07,20,12,53,19.60
2016,07,20,12,54,19.50
2016,07,20,12,55,19.50
2016,07,20,12,56,19.40
2016,07,20,12,57,19.40
2016,07,20,12,58,19.40
2016,07,20,12,59,19.40
2016,07,20,13,00,19.40
2016,07,20,13,01,19.40
2016,07,20,13,02,19.40
2016,07,20,13,03,19.40
2016,07,20,13,04,19.40
2016,07,20,13,05,19.40
2016,07,20,13,06,19.40
2016,07,20,13,07,19.50
2016,07,20,13,08,19.50
2016,07,20,13,09,19.50
2016,07,20,13,10,19.50
2016,07,20,13,11,19.50
2016,07,20,13,12,19.50
2016,07,20,13,13,19.40
2016,07,20,13,14,19.40
2016,07,20,13,15,19.40
2016,07,20,13,16,19.40
2016,07,20,13,17,19.40
2016,07,20,13,18,19.40
2016,07,20,13,19,19.40
2016,07,20,13,20,19.40
2016,07,20,13,21,19.40
2016,07,20,13,22,19.40
2016,07,20,13,23,19.40
2016,07,20,13,24,19.40
2016,07,20,13,25,19.40
2016,07,20,13,26,19.50
2016,07,20,13,27,19.50
2016,07,20,13,28,19.50
2016,07,20,13,29,19.60
2016,07,20,13,30,19.60
2016,07,20,13,31,19.60
2016,07,20,13,32,19.60
2016,07,20,13,33,19.60
2016,07,20,13,34,19.70
2016,07,20,13,35,19.70
2016,07,20,13,36,19.70
2016,07,20,13,37,19.70
2016,07,20,13,38,19.70
2016,07,20,13,39,19.80
2016,07,20,13,40,19.80
2016,07,20,13,41,19.80
2016,07,20,13,42,19.80
2016,07,20,13,43,19.80
2016,07,20,13,44,19.80
2016,07,20,13,45,19.80
2016,07,20,13,46,19.80
2016,07,20,13,47,19.80
2016,07,20,13,48,19.80
2016,07,20,13,49,19.90
2016,07,20,13,50,19.90
2016,07,20,13,51,20.00
2016,07,20,13,52,20.00
2016,07,20,13,53,20.10
2016,07,20,13,54,20.10
2016,07,20,13,55,20.20
2016,07,20,13,56,20.20
2016,07,20,13,57,20.20
2016,07,20,13,58,20.30
2016,07,20,13,59,20.30
2016,07,20,14,00,20.40
2016,07,20,14,01,20.40
2016,07,20,14,02,20.50
2016,07,20,14,03,20.50
2016,07,20,14,04,20.50
2016,07,20,14,05,20.50
2016,07,20,14,06,20.60
2016,07,20,14,07,20.60
2016,07,20,14,08,20.60
2016,07,20,14,09,20.60
2016,07,20,14,10,20.50
2016,07,20,14,11,20.40
2016,07,20,14,12,20.40
2016,07,20,14,13,20.40
2016,07,20,14,14,20.40
2016,07,20,14,15,20.40
2016,07,20,14,16,20.40
2016,07,20,14,17,20.30
2016,07,20,14,18,20.30
2016,07,20,14,19,20.30
2016,07,20,14,20,20.40
2016,07,20,14,21,20.40
2016,07,20,14,22,20.50
2016,07,20,14,23,20.60
2016,07,20,14,24,20.60
2016,07,20,14,25,20.60
2016,07,20,14,26,20.70
2016,07,20,14,27,20.70
2016,07,20,14,28,20.80
2016,07,20,14,29,20.90
2016,07,20,14,30,20.90
2016,07,20,14,31,20.90
2016,07,20,14,32,21.00
2016,07,20,14,33,21.10
2016,07,20,14,34,21.10
2016,07,20,14,35,21.10
2016,07,20,14,36,21.10
2016,07,20,14,37,21.10
2016,07,20,14,38,21.10
2016,07,20,14,39,21.10
2016,07,20,14,40,21.10
2016,07,20,14,41,21.10
2016,07,20,14,42,21.10
2016,07,20,14,43,21.10
2016,07,20,14,44,21.10
2016,07,20,14,45,21.10
2016,07,20,14,46,21.10
2016,07,20,14,47,21.10
2016,07,20,14,48,21.10
2016,07,20,14,49,21.10
2016,07,20,14,50,21.10
2016,07,20,14,51,21.10
2016,07,20,14,52,21.20
2016,07,20,14,53,21.20
2016,07,20,14,54,21.20
2016,07,20,14,55,21.30
2016,07,20,14,56,21.30
2016,07,20,14,57,21.30
2016,07,20,14,58,21.30
2016,07,20,14,59,21.30
2016,07,20,15,00,21.30
2016,07,20,15,01,21.40
2016,07,20,15,02,21.30
2016,07,20,15,03,21.30
2016,07,20,15,04,21.30
2016,07,20,15,05,21.20
2016,07,20,15,06,21.10
2016,07,20,15,07,21.10
2016,07,20,15,08,21.00
2016,07,20,15,09,21.00
2016,07,20,15,10,20.90
2016,07,20,15,11,20.90
2016,07,20,15,12,20.90
2016,07,20,15,13,20.90
2016,07,20,15,14,20.90
2016,07,20,15,15,20.90
2016,07,20,15,16,20.90
2016,07,20,15,17,20.90
2016,07,20,15,18,20.80
2016,07,20,15,19,20.80
2016,07,20,15,20,20.90
2016,07,20,15,21,20.90
2016,07,20,15,22,21.00
2016,07,20,15,23,21.00
2016,07,20,15,24,21.10
2016,07,20,15,25,21.10
2016,07,20,15,26,21.20
2016,07,20,15,27,21.10
2016,07,20,15,28,21.10
2016,07,20,15,29,21.00
2016,07,20,15,30,21.00
2016,07,20,15,31,20.90
2016,07,20,15,32,21.00
2016,07,20,15,33,21.10
2016,07,20,15,34,21.10
2016,07,20,15,35,21.10
2016,07,20,15,36,21.20
2016,07,20,15,37,21.20
2016,07,20,15,38,21.20
2016,07,20,15,39,21.20
2016,07,20,15,40,21.20
2016,07,20,15,41,21.20
2016,07,20,15,42,21.10
2016,07,20,15,43,21.10
2016,07,20,15,44,21.00
2016,07,20,15,45,20.90
2016,07,20,15,46,20.90
2016,07,20,15,47,20.80
2016,07,20,15,48,20.80
2016,07,20,15,49,20.80
2016,07,20,15,50,20.80
2016,07,20,15,51,20.80
2016,07,20,15,52,20.80
2016,07,20,15,53,20.80
2016,07,20,15,54,20.80
2016,07,20,15,55,20.80
2016,07,20,15,56,20.90
2016,07,20,15,57,20.80
2016,07,20,15,58,20.80
2016,07,20,15,59,20.80
2016,07,20,16,00,20.80
2016,07,20,16,01,20.80
2016,07,20,16,02,20.80
2016,07,20,16,03,20.80
2016,07,20,16,04,20.90
2016,07,20,16,05,20.90
2016,07,20,16,06,20.90
2016,07,20,16,07,20.90
2016,07,20,16,08,20.90
2016,07,20,16,09,21.00
2016,07,20,16,10,21.00
2016,07,20,16,11,21.10
2016,07,20,16,12,21.10
2016,07,20,16,13,21.10
2016,07,20,16,14,21.10
2016,07,20,16,15,21.20
2016,07,20,16,16,21.20
2016,07,20,16,17,21.20
2016,07,20,16,18,21.20
2016,07,20,16,19,21.30
2016,07,20,16,20,21.30
2016,07,20,16,21,21.30
2016,07,20,16,22,21.30
2016,07,20,16,23,21.30
2016,07,20,16,24,21.40
2016,07,20,16,25,21.30
2016,07,20,16,26,21.30
2016,07,20,16,27,21.30
2016,07,20,16,28,21.30
2016,07,20,16,29,21.40
2016,07,20,16,30,21.40
2016,07,20,16,31,21.50
2016,07,20,16,32,21.60
2016,07,20,16,33,21.60
2016,07,20,16,34,21.70
2016,07,20,16,35,21.70
2016,07,20,16,36,21.70
2016,07,20,16,37,21.70
2016,07,20,16,38,21.70
2016,07,20,16,39,21.70
2016,07,20,16,40,21.70
2016,07,20,16,41,21.60
2016,07,20,16,42,21.60
2016,07,20,16,43,21.50
2016,07,20,16,44,21.40
2016,07,20,16,45,21.30
2016,07,20,16,46,21.20
2016,07,20,16,47,21.20
2016,07,20,16,48,21.20
2016,07,20,16,49,21.10
2016,07,20,16,50,21.10
2016,07,20,16,51,21.10
2016,07,20,16,52,21.10
2016,07,20,16,53,21.00
2016,07,20,16,54,21.00
2016,07,20,16,55,21.00
2016,07,20,16,56,21.00
2016,07,20,16,57,21.10
2016,07,20,16,58,21.10
2016,07,20,16,59,21.10
2016,07,20,17,00,21.10
2016,07,20,17,01,21.10
2016,07,20,17,02,21.20
2016,07,20,17,03,21.20
2016,07,20,17,04,21.20
2016,07,20,17,05,21.30
2016,07,20,17,06,21.30
2016,07,20,17,07,21.30
2016,07,20,17,08,21.30
2016,07,20,17,09,21.30
2016,07,20,17,10,21.30
2016,07,20,17,11,21.30
2016,07,20,17,12,21.30
2016,07,20,17,13,21.30
2016,07,20,17,14,21.30
2016,07,20,17,15,21.20
2016,07,20,17,16,21.20
2016,07,20,17,17,21.20
2016,07,20,17,18,21.30
2016,07,20,17,19,21.20